�N����,����,�~����,�C��,���x,�C��,����,���ϕ���,�ő�u�ԕ���,�ő厞����,���˗�,�I�_���x,�n�����x,�ő啗���N��,DTYPE
"20/07/23","00:10",0.0,22.4,88.8,1003.8,323.8,1.5,2.1,340.1,0.00,20.5,26.0,"00:07:20",1
"20/07/23","00:20",0.0,22.4,88.8,1003.8,310.8,1.6,2.4,319.4,0.00,20.5,26.0,"00:16:24",1
"20/07/23","00:30",0.0,22.4,88.8,1003.4,326.5,1.2,2.4,327.9,0.00,20.5,26.0,"00:21:04",1
"20/07/23","00:40",0.0,22.4,88.9,1003.6,304.7,1.3,2.0,316.9,0.00,20.5,25.9,"00:37:12",1
"20/07/23","00:50",0.0,22.5,89.1,1003.6,314.4,1.3,1.8,326.8,0.00,20.7,25.9,"00:49:52",1
"20/07/23","01:00",0.0,22.4,89.1,1003.6,323.7,1.3,1.8,327.3,0.00,20.6,26.0,"00:50:24",1
"20/07/23","01:10",0.0,22.4,89.4,1003.6,314.3,1.5,1.9,337.4,0.00,20.6,26.0,"01:00:48",1
"20/07/23","01:20",0.0,22.3,89.5,1003.4,296.4,1.0,1.3,310.6,0.00,20.5,25.9,"01:16:08",1
"20/07/23","01:30",0.0,22.3,89.7,1003.4,317.3,1.2,2.1,336.7,0.00,20.6,25.8,"01:24:08",1
"20/07/23","01:40",0.0,22.3,89.9,1003.1,326.0,1.5,1.8,325.8,0.00,20.6,25.8,"01:30:08",1
"20/07/23","01:50",0.0,22.4,90.0,1003.1,313.1,1.1,1.6,317.1,0.00,20.7,25.6,"01:40:02",1
"20/07/23","02:00",0.0,22.4,90.0,1003.1,307.3,1.2,1.9,333.7,0.00,20.7,25.7,"01:59:44",1
"20/07/23","02:10",0.0,22.5,90.1,1003.4,321.4,1.2,2.1,324.7,0.00,20.8,25.6,"02:00:32",1
"20/07/23","02:20",0.0,22.5,90.2,1002.6,307.7,1.2,1.9,331.4,0.00,20.9,25.7,"02:16:24",1
"20/07/23","02:30",0.0,22.5,90.3,1002.6,296.8,1.0,2.0,310.0,0.00,20.9,25.6,"02:22:16",1
"20/07/23","02:40",0.0,22.5,90.3,1002.9,293.2,0.8,1.4,328.0,0.00,20.9,25.6,"02:37:04",1
"20/07/23","02:50",0.0,22.6,90.3,1002.9,313.8,1.0,1.4,328.8,0.00,21.0,25.4,"02:47:20",1
"20/07/23","03:00",0.0,22.6,90.4,1002.6,327.1,0.7,1.1,336.7,0.00,21.0,25.5,"02:53:44",1
"20/07/23","03:10",0.0,22.6,90.5,1003.1,327.6,1.1,1.6,327.9,0.00,21.0,25.5,"03:07:12",1
"20/07/23","03:20",0.0,22.6,90.5,1003.1,311.9,1.0,1.4,335.1,0.00,21.0,25.5,"03:11:20",1
"20/07/23","03:30",0.0,22.5,90.6,1003.1,308.2,1.0,1.7,329.2,0.00,20.9,25.5,"03:22:24",1
"20/07/23","03:40",0.0,22.6,90.7,1002.9,309.8,1.0,1.3,331.5,0.00,21.0,25.5,"03:37:28",1
"20/07/23","03:50",0.0,22.7,90.7,1002.9,322.1,1.0,1.3,330.2,0.00,21.1,25.4,"03:41:52",1
"20/07/23","04:00",0.0,22.8,90.7,1003.1,303.3,1.0,1.3,318.4,0.00,21.2,25.4,"03:50:48",1
"20/07/23","04:10",0.0,22.7,90.7,1003.4,327.3,0.8,1.3,329.8,0.00,21.1,25.4,"04:02:56",1
"20/07/23","04:20",0.0,22.7,90.8,1003.1,298.8,0.6,1.1,322.9,0.00,21.2,25.3,"04:10:08",1
"20/07/23","04:30",0.0,22.7,90.8,1002.9,316.1,1.0,1.1,321.5,0.00,21.2,25.5,"04:22:16",1
"20/07/23","04:40",0.0,22.8,90.9,1002.9,322.4,1.1,1.3,320.4,0.00,21.3,25.4,"04:32:08",1
"20/07/23","04:50",0.0,22.8,90.9,1003.1,328.2,1.0,1.6,335.8,0.00,21.3,25.4,"04:48:16",1
"20/07/23","05:00",0.0,22.6,91.0,1002.9,327.6,1.0,1.3,339.6,0.00,21.1,25.4,"04:50:40",1
"20/07/23","05:10",0.0,22.6,91.1,1003.6,308.1,1.0,1.3,318.6,0.00,21.1,25.3,"05:02:48",1
"20/07/23","05:20",0.0,22.6,91.2,1003.6,307.8,1.1,1.6,325.0,0.00,21.1,25.4,"05:17:20",1
"20/07/23","05:30",0.0,22.7,91.2,1003.6,309.9,0.8,1.2,336.4,0.00,21.2,25.3,"05:27:04",1
"20/07/23","05:40",0.0,22.8,91.3,1003.4,319.7,1.1,1.4,316.9,0.00,21.3,25.3,"05:36:08",1
"20/07/23","05:50",0.0,22.8,91.3,1003.6,305.5,0.8,1.3,324.0,0.00,21.3,25.3,"05:42:00",1
"20/07/23","06:00",0.0,22.7,91.3,1003.6,282.2,0.8,1.1,269.5,0.00,21.2,24.9,"05:50:40",1
"20/07/23","06:10",0.0,22.7,91.3,1003.4,286.3,0.7,1.1,271.4,0.00,21.2,25.1,"06:07:36",1
"20/07/23","06:20",0.0,22.8,91.4,1003.6,286.2,0.8,1.4,268.5,0.00,21.4,25.3,"06:11:36",1
"20/07/23","06:30",0.0,22.9,91.4,1003.6,316.1,1.0,1.8,314.6,0.00,21.5,25.3,"06:26:48",1
"20/07/23","06:40",0.0,22.9,91.4,1003.6,315.9,1.0,1.6,325.4,0.00,21.5,25.2,"06:30:16",1
"20/07/23","06:50",0.0,23.1,91.4,1003.6,320.5,1.1,1.7,328.9,0.00,21.7,25.2,"06:40:48",1
"20/07/23","07:00",0.0,23.1,91.3,1003.6,306.8,1.0,1.6,319.4,0.00,21.6,25.4,"06:51:44",1
"20/07/23","07:10",0.0,23.2,91.5,1003.8,274.7,0.7,1.1,275.0,0.01,21.8,25.2,"07:05:36",1
"20/07/23","07:20",0.0,23.4,91.4,1004.3,313.2,0.8,1.2,333.1,0.04,22.0,25.1,"07:12:48",1
"20/07/23","07:30",0.0,23.4,91.3,1003.8,315.2,1.0,1.4,334.1,0.03,21.9,25.2,"07:25:12",1
"20/07/23","07:40",0.0,23.5,91.2,1003.6,331.7,0.7,1.6,332.6,0.02,22.0,25.3,"07:37:28",1
"20/07/23","07:50",0.0,23.7,91.2,1003.8,296.0,0.7,1.3,320.0,0.02,22.2,25.4,"07:40:56",1
"20/07/23","08:00",0.0,23.7,91.0,1003.8,286.2,0.7,1.1,310.1,0.03,22.2,25.3,"07:51:44",1
"20/07/23","08:10",0.0,23.9,90.9,1003.6,283.4,0.6,1.0,312.8,0.03,22.4,25.3,"08:06:44",1
"20/07/23","08:20",0.0,24.3,90.8,1003.4,280.3,0.6,1.2,315.6,0.09,22.7,25.5,"08:13:28",1
"20/07/23","08:30",0.0,24.6,90.7,1003.6,302.6,0.6,1.3,327.9,0.08,23.0,25.4,"08:26:32",1
"20/07/23","08:40",0.0,24.5,89.4,1003.4,240.7,0.6,1.1,230.1,0.09,22.7,25.4,"08:32:00",1
"20/07/23","08:50",0.0,24.8,89.1,1003.6,254.4,0.3,0.8,251.6,0.08,22.9,25.2,"08:42:24",1
"20/07/23","09:00",0.0,25.2,88.8,1003.6,262.6,0.6,0.9,314.2,0.09,23.3,25.4,"08:51:28",1
"20/07/23","09:10",0.0,25.0,88.1,1003.8,253.0,0.5,1.0,242.7,0.04,22.9,25.6,"09:06:56",1
"20/07/23","09:20",0.0,25.0,87.9,1003.6,293.7,0.7,1.0,311.4,0.03,22.9,25.5,"09:13:04",1
"20/07/23","09:30",0.0,25.3,87.7,1003.6,306.6,0.7,1.1,330.9,0.10,23.2,25.6,"09:24:24",1
"20/07/23","09:40",0.0,25.8,87.0,1003.1,291.1,0.7,1.8,345.1,0.15,23.5,25.7,"09:34:40",1
"20/07/23","09:50",0.0,26.3,86.0,1003.4,1.2,0.3,1.3,5.0,0.17,23.8,25.8,"09:46:08",1
"20/07/23","10:00",0.0,26.6,84.9,1003.1,186.5,0.3,1.1,219.4,0.16,23.9,26.0,"09:52:56",1
"20/07/23","10:10",0.0,27.1,83.4,1002.6,166.7,0.6,1.4,110.9,0.21,24.1,25.9,"10:09:44",1
"20/07/23","10:20",0.0,27.3,82.5,1002.6,186.7,0.6,1.3,93.1,0.18,24.1,26.0,"10:10:48",1
"20/07/23","10:30",0.0,27.3,81.3,1003.1,238.5,0.5,1.3,226.0,0.15,23.9,26.0,"10:27:04",1
"20/07/23","10:40",0.0,27.3,80.7,1003.4,261.2,1.3,2.7,341.5,0.11,23.7,26.1,"10:35:52",1
"20/07/23","10:50",0.0,26.9,81.2,1002.6,245.5,1.3,2.8,203.6,0.04,23.4,26.0,"10:40:40",1
"20/07/23","11:00",0.2,26.5,82.6,1002.6,260.5,1.1,2.8,219.1,0.03,23.3,26.1,"10:58:24",1
"20/07/23","11:10",0.0,25.8,83.8,1003.1,271.2,1.2,3.3,350.6,0.04,22.9,26.4,"11:04:24",1
"20/07/23","11:20",0.0,25.8,84.5,1003.1,287.9,1.0,2.4,242.0,0.05,23.0,26.2,"11:10:02",1
"20/07/23","11:30",0.0,25.8,84.8,1003.1,270.9,1.1,2.1,227.4,0.13,23.1,26.2,"11:27:04",1
"20/07/23","11:40",0.0,26.4,83.8,1003.4,273.3,1.1,2.2,253.8,0.24,23.5,26.2,"11:33:36",1
"20/07/23","11:50",0.0,26.5,82.3,1003.6,268.0,1.2,3.1,245.5,0.21,23.3,26.4,"11:40:08",1
"20/07/23","12:00",0.0,27.0,80.5,1003.6,262.0,1.1,2.6,322.5,0.23,23.4,26.5,"11:52:40",1
"20/07/23","12:10",0.0,27.0,78.4,1003.1,263.6,1.2,3.6,346.0,0.20,23.0,26.2,"12:08:32",1
"20/07/23","12:20",0.0,27.0,77.5,1002.6,246.2,1.6,3.4,250.4,0.22,22.8,26.5,"12:11:04",1
"20/07/23","12:30",0.0,27.1,77.6,1002.4,270.3,1.1,2.6,248.2,0.23,22.9,26.6,"12:22:48",1
"20/07/23","12:40",0.0,27.5,76.5,1003.1,300.1,1.2,3.5,341.0,0.31,23.0,26.6,"12:37:28",1
"20/07/23","12:50",0.0,27.9,75.4,1002.9,298.7,1.2,4.3,339.8,0.35,23.2,26.7,"12:43:12",1
"20/07/23","13:00",0.0,28.3,73.9,1003.4,273.8,1.2,3.3,247.3,0.40,23.2,26.7,"12:52:56",1
"20/07/23","13:10",0.0,28.6,73.0,1003.1,295.6,0.8,2.7,307.4,0.34,23.3,26.8,"13:02:48",1
"20/07/23","13:20",0.0,28.3,72.1,1003.8,268.4,1.2,2.6,247.9,0.23,22.8,26.7,"13:15:04",1
"20/07/23","13:30",0.0,27.9,73.3,1003.4,326.2,1.6,3.6,351.4,0.22,22.7,27.0,"13:26:00",1
"20/07/23","13:40",0.0,28.0,73.5,1003.1,301.0,1.3,2.6,277.8,0.23,22.9,27.1,"13:35:12",1
"20/07/23","13:50",0.0,28.0,73.4,1003.1,305.3,1.1,2.5,344.8,0.20,22.8,27.2,"13:42:56",1
"20/07/23","14:00",0.0,27.9,73.5,1003.1,329.5,1.7,3.2,354.0,0.23,22.8,27.2,"13:53:36",1
"20/07/23","14:10",0.0,27.8,74.0,1002.9,315.0,1.5,3.7,338.6,0.20,22.8,27.1,"14:02:24",1
"20/07/23","14:20",0.0,27.7,73.9,1003.1,272.4,1.3,3.5,221.1,0.18,22.7,27.2,"14:16:16",1
"20/07/23","14:30",0.0,27.7,74.8,1002.9,256.6,1.3,3.2,231.4,0.21,22.9,27.3,"14:25:12",1
"20/07/23","14:40",0.0,27.7,73.8,1003.1,302.4,1.7,4.3,339.2,0.29,22.6,27.2,"14:30:02",1
"20/07/23","14:50",0.0,28.0,73.1,1003.1,310.8,1.3,3.4,12.1,0.23,22.8,27.3,"14:41:04",1
"20/07/23","15:00",0.0,27.5,73.3,1002.9,277.5,1.3,3.2,227.6,0.12,22.3,27.4,"14:58:08",1
"20/07/23","15:10",0.0,27.4,74.0,1002.6,273.1,1.2,2.7,230.3,0.15,22.4,27.4,"15:08:48",1
"20/07/23","15:20",0.0,27.4,73.7,1002.4,292.1,1.5,3.7,321.5,0.19,22.3,27.4,"15:15:12",1
"20/07/23","15:30",0.0,27.5,73.9,1002.6,311.5,1.2,3.3,342.1,0.18,22.5,27.3,"15:22:24",1
"20/07/23","15:40",0.0,27.5,73.5,1002.2,326.3,1.5,4.3,341.5,0.20,22.4,27.4,"15:35:36",1
"20/07/23","15:50",0.0,27.5,73.1,1002.4,294.8,1.3,3.5,340.2,0.19,22.3,27.2,"15:40:16",1
"20/07/23","16:00",0.0,27.7,73.6,1002.4,314.6,1.2,2.4,329.3,0.20,22.6,27.5,"15:54:16",1
"20/07/23","16:10",0.0,27.8,73.1,1002.6,311.3,1.1,2.7,347.1,0.17,22.6,27.4,"16:06:00",1
"20/07/23","16:20",0.0,27.6,73.4,1002.2,313.3,1.1,2.6,340.4,0.12,22.5,27.4,"16:19:04",1
"20/07/23","16:30",0.0,27.1,73.6,1002.2,317.0,1.5,3.3,326.0,0.12,22.0,27.4,"16:29:12",1
"20/07/23","16:40",0.0,27.0,74.8,1001.9,328.8,1.8,2.9,351.2,0.10,22.2,27.4,"16:33:04",1
"20/07/23","16:50",0.0,26.9,75.3,1001.5,339.0,1.3,3.2,343.7,0.10,22.2,27.5,"16:41:04",1
"20/07/23","17:00",0.0,27.0,75.6,1001.7,330.7,1.5,2.4,339.4,0.10,22.4,27.7,"16:51:28",1
"20/07/23","17:10",0.0,26.8,75.3,1001.5,320.7,1.3,2.4,340.1,0.08,22.1,27.4,"17:06:16",1
"20/07/23","17:20",0.0,26.7,75.5,1002.2,316.3,1.2,2.4,339.5,0.05,22.0,27.3,"17:14:08",1
"20/07/23","17:30",0.0,26.4,75.6,1001.9,310.2,1.1,2.9,337.9,0.04,21.8,27.4,"17:28:16",1
"20/07/23","17:40",0.0,26.3,76.1,1002.2,322.0,1.2,2.9,351.2,0.04,21.8,27.2,"17:37:52",1
"20/07/23","17:50",0.0,26.3,76.6,1002.2,298.8,0.7,1.3,238.0,0.03,21.9,27.3,"17:48:32",1
"20/07/23","18:00",0.0,26.2,77.0,1002.4,328.0,1.2,2.4,344.0,0.03,21.9,27.3,"17:59:52",1
"20/07/23","18:10",0.0,26.0,77.4,1002.4,335.4,1.2,2.0,338.1,0.02,21.8,27.2,"18:04:40",1
"20/07/23","18:20",0.0,26.0,77.6,1002.6,344.0,1.2,2.6,347.0,0.03,21.8,27.3,"18:10:40",1
"20/07/23","18:30",0.0,25.9,77.4,1002.6,332.6,1.2,2.4,334.8,0.03,21.7,27.2,"18:27:36",1
"20/07/23","18:40",0.0,25.8,77.7,1002.9,331.0,1.3,2.0,347.3,0.02,21.6,27.0,"18:34:56",1
"20/07/23","18:50",0.0,25.7,78.2,1002.9,339.4,1.3,2.7,341.9,0.01,21.7,26.8,"18:42:24",1
"20/07/23","19:00",0.0,25.4,78.9,1002.9,323.1,1.2,2.4,340.0,0.00,21.5,27.0,"18:51:04",1
"20/07/23","19:10",0.0,25.2,79.6,1003.1,329.9,1.2,2.0,355.4,0.00,21.5,26.8,"19:00:02",1
"20/07/23","19:20",0.0,25.0,80.4,1003.4,336.1,1.3,2.5,344.5,0.00,21.4,26.7,"19:13:28",1
"20/07/23","19:30",0.0,24.8,81.1,1003.6,334.9,1.3,2.1,340.4,0.00,21.4,26.7,"19:26:40",1
"20/07/23","19:40",0.0,24.6,81.8,1003.4,322.9,1.2,2.5,343.6,0.00,21.3,26.6,"19:30:24",1
"20/07/23","19:50",0.0,24.6,82.3,1003.4,328.4,1.3,2.5,343.1,0.00,21.4,26.4,"19:43:12",1
"20/07/23","20:00",0.0,24.5,82.6,1003.6,329.7,1.6,3.3,343.1,0.00,21.4,26.4,"19:53:20",1
"20/07/23","20:10",0.0,24.5,82.8,1003.8,332.9,1.5,2.5,321.2,0.00,21.4,26.4,"20:03:12",1
"20/07/23","20:20",0.0,24.4,83.1,1003.8,321.3,1.1,2.2,344.9,0.00,21.4,26.6,"20:11:20",1
"20/07/23","20:30",0.0,24.3,83.4,1003.8,331.1,1.3,2.7,330.1,0.00,21.3,26.1,"20:20:02",1
"20/07/23","20:40",0.0,24.3,83.6,1004.1,324.6,1.5,2.5,324.2,0.00,21.4,26.3,"20:34:08",1
"20/07/23","20:50",0.0,24.2,83.7,1004.3,319.7,1.2,2.2,325.2,0.00,21.3,25.9,"20:41:52",1
"20/07/23","21:00",0.0,24.1,84.0,1004.8,322.6,1.2,2.5,344.8,0.00,21.3,25.9,"20:52:16",1
"20/07/23","21:10",0.0,24.1,84.4,1004.3,334.8,1.8,2.6,343.9,0.00,21.3,26.1,"21:09:28",1
"20/07/23","21:20",0.0,24.0,84.6,1004.5,328.8,1.8,3.3,343.5,0.00,21.3,26.2,"21:15:28",1
"20/07/23","21:30",0.0,23.9,84.7,1004.5,331.2,1.8,3.5,340.4,0.00,21.2,26.0,"21:23:28",1
"20/07/23","21:40",0.0,23.8,84.8,1004.3,329.8,1.8,3.2,334.5,0.00,21.1,26.2,"21:39:12",1
"20/07/23","21:50",0.0,23.8,84.9,1004.3,321.2,1.8,3.3,330.3,0.00,21.1,25.8,"21:40:56",1
"20/07/23","22:00",0.0,23.7,85.1,1004.3,328.1,1.8,3.1,334.6,0.00,21.1,25.9,"21:58:16",1
"20/07/23","22:10",0.0,23.7,85.3,1004.3,330.9,1.6,3.5,341.2,0.00,21.1,25.8,"22:04:00",1
"20/07/23","22:20",0.0,23.6,85.3,1003.8,335.0,1.8,3.6,343.3,0.00,21.0,25.8,"22:15:20",1
"20/07/23","22:30",0.0,23.6,85.3,1003.8,326.8,1.6,3.3,339.4,0.00,21.0,25.8,"22:25:12",1
"20/07/23","22:40",0.0,23.5,85.3,1003.6,322.1,1.6,2.7,346.6,0.00,20.9,25.7,"22:30:32",1
"20/07/23","22:50",0.0,23.4,85.4,1003.8,304.1,1.1,2.8,330.4,0.00,20.9,25.7,"22:41:28",1
"20/07/23","23:00",0.0,23.4,85.4,1003.8,324.5,1.5,2.6,342.7,0.00,20.9,25.7,"22:55:04",1
"20/07/23","23:10",0.0,23.2,85.5,1003.6,318.5,1.0,1.6,323.3,0.00,20.7,25.7,"23:00:16",1
"20/07/23","23:20",0.0,23.2,85.6,1003.6,329.3,1.0,1.6,333.7,0.00,20.7,25.7,"23:16:00",1
"20/07/23","23:30",0.0,23.1,85.8,1003.8,286.9,0.8,1.6,305.6,0.00,20.6,25.5,"23:28:48",1
"20/07/23","23:40",0.0,23.0,86.0,1003.8,316.5,1.1,1.9,337.8,0.00,20.6,25.4,"23:37:04",1
"20/07/23","23:50",0.0,23.0,86.1,1003.6,330.5,0.6,1.4,334.8,0.00,20.6,25.4,"23:42:24",1
"20/07/23","24:00",0.0,23.0,86.3,1003.6,322.3,0.7,1.8,321.9,0.00,20.6,25.3,"23:56:40",1
